TimePST,TemperatureF,Dew PointF,Humidity,Sea Level PressureIn,VisibilityMPH,Wind Direction,Wind SpeedMPH,Gust SpeedMPH,PrecipitationIn,Events,Conditions,WindDirDegrees,DateUTC
12:15 AM,41.0,39.2,93,30.46,10.0,East,6.9,-,N/A,,Overcast,90,2012-02-02 08:15:00
12:35 AM,41.0,37.4,87,30.46,10.0,East,8.1,-,N/A,,Mostly Cloudy,90,2012-02-02 08:35:00
12:55 AM,41.0,37.4,87,30.45,10.0,East,8.1,-,N/A,,Mostly Cloudy,80,2012-02-02 08:55:00
1:15 AM,41.0,37.4,87,30.44,10.0,East,8.1,-,N/A,,Scattered Clouds,90,2012-02-02 09:15:00
1:35 AM,41.0,37.4,87,30.45,10.0,East,8.1,-,N/A,,Scattered Clouds,80,2012-02-02 09:35:00
1:55 AM,41.0,37.4,87,30.45,10.0,East,8.1,-,N/A,,Scattered Clouds,80,2012-02-02 09:55:00
2:15 AM,41.0,37.4,87,30.45,10.0,East,8.1,-,N/A,,Mostly Cloudy,80,2012-02-02 10:15:00
2:35 AM,41.0,37.4,87,30.45,10.0,East,9.2,-,N/A,,Clear,80,2012-02-02 10:35:00
2:55 AM,41.0,37.4,87,30.44,10.0,East,9.2,-,N/A,,Clear,80,2012-02-02 10:55:00
3:15 AM,41.0,37.4,87,30.44,10.0,East,8.1,-,N/A,,Clear,80,2012-02-02 11:15:00
3:35 AM,41.0,37.4,87,30.43,10.0,ENE,9.2,-,N/A,,Clear,70,2012-02-02 11:35:00
3:55 AM,41.0,37.4,87,30.42,10.0,East,8.1,-,N/A,,Clear,80,2012-02-02 11:55:00
4:15 AM,41.0,37.4,87,30.43,10.0,East,8.1,-,N/A,,Clear,80,2012-02-02 12:15:00
4:35 AM,41.0,37.4,87,30.42,10.0,East,6.9,-,N/A,,Clear,80,2012-02-02 12:35:00
4:55 AM,41.0,37.4,87,30.42,10.0,East,8.1,-,N/A,,Clear,80,2012-02-02 12:55:00
5:15 AM,41.0,37.4,87,30.41,10.0,ENE,8.1,-,N/A,,Clear,70,2012-02-02 13:15:00
5:35 AM,41.0,37.4,87,30.40,10.0,East,9.2,-,N/A,,Clear,80,2012-02-02 13:35:00
5:55 AM,41.0,37.4,87,30.39,10.0,East,9.2,-,N/A,,Clear,80,2012-02-02 13:55:00
6:15 AM,41.0,37.4,87,30.39,10.0,East,10.4,-,N/A,,Clear,80,2012-02-02 14:15:00
6:35 AM,41.0,37.4,87,30.39,10.0,East,10.4,-,N/A,,Clear,80,2012-02-02 14:35:00
6:55 AM,41.0,37.4,87,30.39,10.0,East,11.5,-,N/A,,Clear,80,2012-02-02 14:55:00
7:15 AM,41.0,37.4,87,30.39,10.0,East,12.7,-,N/A,,Clear,80,2012-02-02 15:15:00
7:35 AM,41.0,35.6,81,30.39,10.0,East,11.5,-,N/A,,Clear,80,2012-02-02 15:35:00
7:55 AM,41.0,35.6,81,30.39,10.0,ENE,12.7,16.1,N/A,,Clear,70,2012-02-02 15:55:00
8:15 AM,41.0,35.6,81,30.39,10.0,ENE,13.8,-,N/A,,Clear,70,2012-02-02 16:15:00
8:35 AM,42.8,37.4,81,30.38,10.0,East,12.7,18.4,N/A,,Clear,80,2012-02-02 16:35:00
8:55 AM,42.8,37.4,81,30.38,10.0,East,16.1,20.7,N/A,,Clear,80,2012-02-02 16:55:00
9:15 AM,44.6,37.4,76,30.38,10.0,East,17.3,20.7,N/A,,Clear,80,2012-02-02 17:15:00
9:35 AM,44.6,37.4,76,30.37,10.0,ENE,13.8,-,N/A,,Clear,70,2012-02-02 17:35:00
9:55 AM,46.4,37.4,71,30.36,10.0,East,16.1,19.6,N/A,,Clear,80,2012-02-02 17:55:00
10:15 AM,46.4,37.4,71,30.36,10.0,East,12.7,23.0,N/A,,Clear,80,2012-02-02 18:15:00
10:35 AM,48.2,37.4,66,30.35,10.0,East,18.4,23.0,N/A,,Clear,80,2012-02-02 18:35:00
10:55 AM,50.0,37.4,62,30.34,10.0,East,16.1,23.0,N/A,,Clear,90,2012-02-02 18:55:00
11:15 AM,50.0,37.4,62,30.33,10.0,East,18.4,-,N/A,,Clear,90,2012-02-02 19:15:00
11:35 AM,50.0,37.4,62,30.32,10.0,East,18.4,24.2,N/A,,Clear,80,2012-02-02 19:35:00
11:55 AM,51.8,37.4,58,30.30,10.0,East,19.6,26.5,N/A,,Clear,90,2012-02-02 19:55:00
12:15 PM,51.8,35.6,54,30.29,10.0,East,20.7,27.6,N/A,,Clear,90,2012-02-02 20:15:00
12:35 PM,51.8,35.6,54,30.27,10.0,East,20.7,27.6,N/A,,Clear,80,2012-02-02 20:35:00
12:55 PM,51.8,35.6,54,30.27,10.0,East,19.6,27.6,N/A,,Clear,80,2012-02-02 20:55:00
1:15 PM,53.6,35.6,51,30.25,10.0,East,20.7,25.3,N/A,,Clear,80,2012-02-02 21:15:00
1:35 PM,53.6,35.6,51,30.24,10.0,East,16.1,23.0,N/A,,Clear,80,2012-02-02 21:35:00
1:55 PM,53.6,35.6,51,30.24,10.0,East,15.0,19.6,N/A,,Clear,90,2012-02-02 21:55:00
2:15 PM,55.4,33.8,44,30.22,10.0,East,15.0,19.6,N/A,,Clear,90,2012-02-02 22:15:00
2:35 PM,55.4,32.0,41,30.21,10.0,East,16.1,21.9,N/A,,Clear,80,2012-02-02 22:35:00
2:55 PM,55.4,32.0,41,30.20,10.0,East,15.0,18.4,N/A,,Clear,80,2012-02-02 22:55:00
3:15 PM,55.4,32.0,41,30.20,10.0,East,13.8,-,N/A,,Clear,90,2012-02-02 23:15:00
3:35 PM,55.4,32.0,41,30.20,10.0,East,6.9,-,N/A,,Clear,80,2012-02-02 23:35:00
3:55 PM,55.4,32.0,41,30.19,10.0,ENE,9.2,-,N/A,,Clear,70,2012-02-02 23:55:00
4:15 PM,53.6,33.8,47,30.18,10.0,East,11.5,17.3,N/A,,Clear,80,2012-02-03 00:15:00
4:35 PM,53.6,33.8,47,30.18,10.0,East,12.7,-,N/A,,Clear,90,2012-02-03 00:35:00
4:55 PM,53.6,32.0,44,30.17,10.0,East,16.1,-,N/A,,Clear,80,2012-02-03 00:55:00
5:15 PM,51.8,32.0,47,30.16,10.0,East,17.3,-,N/A,,Clear,90,2012-02-03 01:15:00
5:35 PM,51.8,33.8,50,30.16,10.0,East,19.6,23.0,N/A,,Clear,80,2012-02-03 01:35:00
5:55 PM,50.0,33.8,54,30.15,10.0,East,20.7,26.5,N/A,,Clear,90,2012-02-03 01:55:00
6:15 PM,50.0,33.8,54,30.15,10.0,East,19.6,27.6,N/A,,Clear,80,2012-02-03 02:15:00
6:35 PM,50.0,35.6,58,30.15,10.0,East,16.1,27.6,N/A,,Clear,80,2012-02-03 02:35:00
6:55 PM,50.0,35.6,58,30.14,10.0,East,18.4,25.3,N/A,,Clear,90,2012-02-03 02:55:00
7:15 PM,50.0,35.6,58,30.13,10.0,East,18.4,23.0,N/A,,Clear,80,2012-02-03 03:15:00
7:35 PM,50.0,35.6,58,30.12,10.0,East,17.3,24.2,N/A,,Clear,80,2012-02-03 03:35:00
7:55 PM,50.0,35.6,58,30.12,10.0,East,17.3,-,N/A,,Clear,80,2012-02-03 03:55:00
8:15 PM,50.0,33.8,54,30.11,10.0,East,18.4,25.3,N/A,,Clear,90,2012-02-03 04:15:00
8:35 PM,50.0,33.8,54,30.11,10.0,East,18.4,24.2,N/A,,Clear,80,2012-02-03 04:35:00
8:55 PM,50.0,33.8,54,30.11,10.0,East,19.6,26.5,N/A,,Clear,80,2012-02-03 04:55:00
9:15 PM,50.0,33.8,54,30.10,10.0,East,20.7,28.8,N/A,,Clear,90,2012-02-03 05:15:00
9:35 PM,50.0,33.8,54,30.10,10.0,East,21.9,26.5,N/A,,Clear,90,2012-02-03 05:35:00
9:55 PM,50.0,33.8,54,30.10,10.0,East,21.9,28.8,N/A,,Clear,80,2012-02-03 05:55:00
10:15 PM,50.0,32.0,50,30.09,10.0,East,24.2,31.1,N/A,,Clear,80,2012-02-03 06:15:00
10:35 PM,50.0,32.0,50,30.09,10.0,East,23.0,32.2,N/A,,Clear,90,2012-02-03 06:35:00
10:55 PM,50.0,32.0,50,30.09,10.0,East,24.2,32.2,N/A,,Clear,80,2012-02-03 06:55:00
11:15 PM,48.2,32.0,54,30.08,10.0,East,23.0,31.1,N/A,,Clear,80,2012-02-03 07:15:00
11:35 PM,48.2,32.0,54,30.08,10.0,East,24.2,29.9,N/A,,Clear,80,2012-02-03 07:35:00
11:55 PM,48.2,30.2,50,30.08,10.0,East,19.6,31.1,N/A,,Clear,80,2012-02-03 07:55:00